BEIDOU-2 M6 (C14)

Last updated on Sun Jun 21 2026 00:03:31 GMT+0000 (Coordinated Universal Time)

1 38775U 12050B 26171.05246878 -.00000069 00000+0 00000+0 0 9999 2 38775 56.5467 62.7995 0013616 357.8468 2.1878 1.86230944 93365
UTC large
Height (km)
Speed (km/s)
/
Latitude / Longitude
Inclination (degrees)
Orbital Period (minutes)
Azimuth
Elevation
Range (km)
Doppler Factor

Next 0 passes for location: London (51.5072 / 0.1276)

No passes found over London.
BEIDOU-2 M6 (C14)